Tracking 30009 objects as of 7-Dec-2024
HD Live streaming from Space Station
objects crossing your sky now

SL-8 DEB *

Track SL-8 DEB * now!
10-day predictions


NORAD ID: 18519
Int'l Code: 1984-019D
Perigee: 670.7 km
Apogee: 680.0 km
Inclination: 74.0 °
Period: 98.1 minutes
Semi major axis: 7046 km
RCS: 0.0063 m2 (small)
Launch date: February 21, 1984
Source: Commonwealth of Independent States (former USSR) (CIS)
Launch site: PLESETSK MISSILE AND SPACE COMPLEX (PKMTR)

Note: This is SATELLITE DEBRIS
Your satellite tracking list
Your tracking list is empty




NASA's NSSDC Master Catalog

Two Line Element Set (TLE):
1 18519U 84019D   24341.90076104  .00007524  00000-0  13232-2 0  9998
2 18519  74.0444 303.5803 0006641 117.6258 242.5587 14.67763663979218
Source of the keplerian elements: AFSPC